Terminal Aerodrome Forecast
Issued by NWS

Home | Current Version | Previous Version | Text Only | Print | Product List | Glossary On
Versions: 1 2 3 4 5 6 7 8 9 10 11 12 13 14
000
FTUS44 KCRP 292333
TAFLRD
TAF
KLRD 292333Z 3000/3024 11014G22KT P6SM SCT060 BKN150
     FM300400 13013KT P6SM BKN040 OVC120
      TEMPO 3006/3010 6SM SHRA OVC035
     FM301000 14008KT P6SM BKN025 OVC100
     FM301600 15013KT P6SM SCT025 BKN150
     FM302200 14014KT P6SM BKN050=

USA.gov is the U.S. government's official web portal to all federal, state and local government web resources and services.